Back to catalog

FENGYUN 1C DEB

AliveSSO
NORAD 31186·DEBRIS·🇨🇳 China

Launched May 10, 1999 from Taiyuan Satellite Launch Center

Loading…

Next Passes (next 24 hours)

TLE

FreshSource: Space-Track

Epoch: Sep 12, 2026, 01:01 UTC

1 31186U 99025BJQ 26255.04302351  .00000489  00000-0  28451-3 0  9996
2 31186  99.1793 182.3311 0026184  17.2078  46.2286 14.13318156999653

Track FENGYUN 1C DEB in real time with AllMySat

Download on the App Store